Date String (YYYY-MM-DD hh:mm:ss) UTC,Instrument flags,Ambient pressure (hPa),Sample flow (lpm),Bypass flow (lpm),Sample temperature (°C),Ambient temperature (°C),ASC tube jacket temperature (°C),LED temperature (°C),Box temperature (°C),Sample RH (%),Span deviation,Mass concentration (μg/m³),Mass concentration (μg/m³),Mass concentration (μg/m³)
DateTimeUTC,F1_M11,P_M11,Q1_M11,Q2_M11,T1_M11,T2_M11,T3_M11,T4_M11,T5_M11,U1_M11,ZSPAN_M11,X0_M11,X2_M11,X1_M11
2022-08-29 00:00:00,,0822.8,5.01,0.00,29.1,26.9,00.0,37.7,30.8,13.5,0000.0,0003.99,0001.30,0000.93
2022-08-29 00:01:00,,0822.8,4.99,0.00,29.1,27.3,00.0,37.7,30.9,14.5,0000.0,0003.94,0001.29,0000.91
2022-08-29 00:02:00,,0822.8,5.01,0.00,29.1,27.5,00.0,37.7,31.0,17.5,0000.0,0003.97,0001.30,0000.92
2022-08-29 00:03:00,,0822.8,5.00,0.00,29.1,27.8,00.0,37.8,31.0,19.0,0000.0,0004.09,0001.37,0000.98
2022-08-29 00:04:00,,0822.8,5.00,0.00,29.2,28.0,00.0,37.8,31.1,20.0,0000.0,0003.71,0001.43,0001.06
2022-08-29 00:05:00,,0822.8,5.00,0.00,29.2,28.1,00.0,37.8,31.2,20.4,0000.0,0002.73,0001.53,0001.18
2022-08-29 00:06:00,,0822.8,5.00,0.00,29.3,28.3,00.0,37.8,31.3,20.9,0000.0,0004.20,0001.74,0001.31
2022-08-29 00:07:00,,0822.8,5.00,0.00,29.3,28.3,00.0,37.9,31.3,21.1,0000.0,0005.05,0002.01,0001.49
2022-08-29 00:08:00,,0822.7,5.00,0.00,29.3,27.3,00.0,37.9,31.2,20.8,0000.0,0005.84,0002.29,0001.68
2022-08-29 00:09:00,,0822.7,5.00,0.00,29.3,26.3,00.0,37.9,31.1,21.0,0000.0,0006.22,0002.55,0001.89
2022-08-29 00:10:00,,0822.6,4.99,0.00,29.2,26.4,00.0,37.8,31.1,20.6,0000.0,0006.72,0002.89,0002.09
2022-08-29 00:11:00,,0822.6,5.01,0.00,29.2,26.7,00.0,37.8,31.0,20.7,0000.0,0006.91,0003.12,0002.28
2022-08-29 00:12:00,,0822.7,5.00,0.00,29.1,27.0,00.0,37.8,31.0,20.6,0000.0,0007.71,0003.30,0002.48
2022-08-29 00:13:00,,0822.7,5.00,0.00,29.1,27.4,00.0,37.8,31.0,20.4,0000.0,0008.79,0003.42,0002.65
2022-08-29 00:14:00,,0822.7,4.99,0.00,29.2,27.6,00.0,37.8,31.1,20.5,0000.0,0009.19,0003.53,0002.77
2022-08-29 00:15:00,,0822.7,5.01,0.00,29.2,27.9,00.0,37.8,31.1,20.5,0000.0,0009.44,0003.63,0002.87
2022-08-29 00:16:00,,0822.8,4.99,0.00,29.2,28.1,00.0,37.9,31.2,20.5,0000.0,0009.79,0003.73,0002.93
2022-08-29 00:17:00,,0822.8,5.01,0.00,29.3,28.2,00.0,37.9,31.2,20.6,0000.0,0009.21,0003.77,0002.98
2022-08-29 00:18:00,,0822.8,5.00,0.00,29.3,28.4,00.0,37.9,31.3,20.7,0000.0,0010.32,0003.76,0003.00
2022-08-29 00:19:00,,0823.0,5.00,0.00,29.3,28.5,00.0,37.9,31.4,20.8,0000.0,0010.70,0003.75,0002.99
2022-08-29 00:20:00,,0823.0,5.00,0.00,29.4,28.6,00.0,38.0,31.4,21.0,0000.0,0010.94,0003.79,0002.99
2022-08-29 00:21:00,,0823.0,5.00,0.00,29.4,28.7,00.0,38.0,31.5,20.8,0000.0,0010.98,0003.77,0003.00
2022-08-29 00:22:00,,0823.1,5.00,0.00,29.5,28.0,00.0,38.0,31.4,20.9,0000.0,0011.27,0003.78,0003.00
2022-08-29 00:23:00,,0823.2,5.00,0.00,29.4,27.1,00.0,38.0,31.3,20.9,0000.0,0011.17,0003.76,0003.01
2022-08-29 00:24:00,,0823.3,5.01,0.00,29.4,27.1,00.0,38.0,31.3,20.9,0000.0,0010.54,0003.78,0003.03
2022-08-29 00:25:00,,0823.2,5.00,0.00,29.4,27.3,00.0,38.0,31.3,21.1,0000.0,0010.56,0003.77,0003.05
2022-08-29 00:26:00,,0823.3,4.99,0.00,29.4,27.6,00.0,38.0,31.2,21.3,0000.0,0010.62,0003.77,0003.06
2022-08-29 00:27:00,,0823.4,5.01,0.00,29.4,27.8,00.0,38.0,31.3,21.3,0000.0,0010.56,0003.77,0003.08
2022-08-29 00:28:00,,0823.3,4.99,0.00,29.4,28.1,00.0,38.0,31.3,21.3,0000.0,0010.67,0003.80,0003.10
2022-08-29 00:29:00,,0823.4,5.01,0.00,29.4,28.3,00.0,38.1,31.4,21.4,0000.0,0009.83,0003.82,0003.11
2022-08-29 00:30:00,,0823.4,4.99,0.00,29.5,28.4,00.0,38.1,31.4,21.4,0000.0,0009.66,0003.84,0003.13
2022-08-29 00:31:00,,0823.4,5.02,0.00,29.5,28.6,00.0,38.1,31.5,21.5,0000.0,0009.53,0003.79,0003.13
2022-08-29 00:32:00,,0823.4,5.00,0.00,29.5,28.7,00.0,38.1,31.5,21.6,0000.0,0009.55,0003.78,0003.13
2022-08-29 00:33:00,,0823.5,4.99,0.00,29.6,28.3,00.0,38.2,31.5,21.7,0000.0,0009.15,0003.76,0003.13
2022-08-29 00:34:00,,0823.5,5.00,0.00,29.5,27.1,00.0,38.1,31.4,21.8,0000.0,0008.90,0003.77,0003.13
2022-08-29 00:35:00,,0823.5,5.01,0.00,29.5,27.0,00.0,38.1,31.4,21.7,0000.0,0008.73,0003.78,0003.13
2022-08-29 00:36:00,,0823.5,5.00,0.00,29.5,27.2,00.0,38.1,31.3,21.9,0000.0,0008.56,0003.81,0003.14
2022-08-29 00:37:00,,0823.5,5.00,0.00,29.5,27.4,00.0,38.1,31.3,21.9,0000.0,0009.52,0003.81,0003.14
2022-08-29 00:38:00,,0823.6,4.99,0.00,29.5,27.7,00.0,38.1,31.3,22.0,0000.0,0009.43,0003.79,0003.13
2022-08-29 00:39:00,,0823.5,5.01,0.00,29.5,28.0,00.0,38.1,31.4,21.9,0000.0,0009.25,0003.76,0003.12
2022-08-29 00:40:00,,0823.5,5.00,0.00,29.5,28.2,00.0,38.1,31.4,21.8,0000.0,0009.25,0003.75,0003.12
2022-08-29 00:41:00,,0823.5,5.01,0.00,29.5,28.4,00.0,38.2,31.5,21.8,0000.0,0008.75,0003.77,0003.11
2022-08-29 00:42:00,,0823.5,5.00,0.00,29.6,28.5,00.0,38.2,31.5,21.9,0000.0,0008.64,0003.78,0003.09
2022-08-29 00:43:00,,0823.5,4.99,0.00,29.6,28.6,00.0,38.2,31.6,21.7,0000.0,0008.55,0003.76,0003.08
2022-08-29 00:44:00,,0823.5,5.01,0.00,29.6,28.4,00.0,38.2,31.6,21.6,0000.0,0008.53,0003.76,0003.06
2022-08-29 00:45:00,,0823.5,4.99,0.00,29.6,27.2,00.0,38.2,31.5,21.6,0000.0,0008.43,0003.73,0003.04
2022-08-29 00:46:00,,0823.5,5.01,0.00,29.6,26.9,00.0,38.2,31.4,21.6,0000.0,0008.34,0003.69,0003.02
2022-08-29 00:47:00,,0823.5,5.00,0.00,29.5,27.1,00.0,38.2,31.3,21.7,0000.0,0008.17,0003.68,0003.02
2022-08-29 00:48:00,,0823.5,4.99,0.00,29.5,27.4,00.0,38.2,31.3,21.8,0000.0,0007.14,0003.69,0003.01
2022-08-29 00:49:00,,0823.4,5.00,0.00,29.5,27.7,00.0,38.2,31.3,22.0,0000.0,0007.07,0003.68,0003.00
2022-08-29 00:50:00,,0823.4,5.00,0.00,29.5,27.9,00.0,38.2,31.4,22.0,0000.0,0007.35,0003.69,0002.99
2022-08-29 00:51:00,,0823.4,4.99,0.00,29.5,28.1,00.0,38.2,31.4,22.1,0000.0,0006.98,0003.65,0002.97
2022-08-29 00:52:00,,0823.4,5.01,0.00,29.5,28.3,00.0,38.2,31.4,22.2,0000.0,0006.76,0003.59,0002.96
2022-08-29 00:53:00,,0823.4,5.00,0.00,29.6,28.5,00.0,38.2,31.5,22.2,0000.0,0006.87,0003.60,0002.96
2022-08-29 00:54:00,,0823.4,5.00,0.00,29.6,28.6,00.0,38.2,31.5,22.2,0000.0,0006.76,0003.58,0002.94
2022-08-29 00:55:00,,0823.3,5.00,0.00,29.6,28.7,00.0,38.3,31.6,22.1,0000.0,0006.76,0003.56,0002.95
2022-08-29 00:56:00,,0823.4,5.00,0.00,29.7,28.7,00.0,38.3,31.6,22.0,0000.0,0006.86,0003.56,0002.95
2022-08-29 00:57:00,,0823.4,5.01,0.00,29.7,28.7,00.0,38.3,31.7,22.0,0000.0,0007.05,0003.58,0002.93
2022-08-29 00:58:00,,0823.4,5.00,0.00,29.7,27.6,00.0,38.3,31.6,22.0,0000.0,0007.09,0003.58,0002.91
2022-08-29 00:59:00,,0823.4,5.00,0.00,29.6,26.4,00.0,38.3,31.4,22.0,0000.0,0007.13,0003.55,0002.90
